User: anonymous
Location: Fort Wayne
(41.1310°N, 85.1290°W)
Time: 07:50:00
(UTC-04:00)
Language:

Cosmos 2056 Rocket - Orbit

View from above orbital plane
View from above orbital plane
View from above satellite
View from above satellite

Ground track
Ground track

The orbit data is extracted from the following two-line orbital elements,

1 20433U 90004B   14271.87815678  .00000231  00000-0  88249-4 0  8350
2 20433 074.0387 017.5362 0040986 027.1476 111.4286 14.35676979292778
Epoch (UTC): 28 September 2014 21:04:32
Eccentricity: 0.0040986
inclination: 74.0387°
perigee height: 743 km
apogee height: 802 km
right ascension of ascending node: 17.5362°
argument of perigee: 27.1476°
revolutions per day: 14.35676979
mean anomaly at epoch: 111.4286°
orbit number at epoch: 29277

The dashed part of the orbit path shows where the satellite is in the earth's shadow,  

DLR